Regional Weather Roundup
Issued by NWS

Home | Current Version | Previous Version | Text Only | Print | Product List | Glossary On
Versions: 1 2 3 4 5 6 7 8 9 10 11 12 13 14 15 16 17 18 19 20 21 22 23 24 25 26 27 28 29 30 31 32 33 34 35 36 37 38 39 40 41 42 43 44 45 46 47 48 49 50
000
ASUS43 KBIS 011610
RWRND

NORTH DAKOTA REGIONAL WEATHER ROUNDUP
NATIONAL WEATHER SERVICE BISMARCK ND
1100 AM CDT SAT AUG 01 2015

NOTE: "FAIR" INDICATES FEW OR NO CLOUDS BELOW 12,000 FEET WITH NO
SIGNIFICANT WEATHER AND/OR OBSTRUCTIONS TO VISIBILITY.


NDZ001>003-009>011-017-011700-
NORTHWEST NORTH DAKOTA

CITY           SKY/WX    TMP DP  RH WIND       PRES   REMARKS
WILLISTON      SUNNY     77  57  50 SW6       29.90F
MINOT          SUNNY     77  53  43 SE6       29.88F
MINOT AFB      SUNNY     77  56  47 SE9       29.87F
$$

NDZ018>021-031>035-040>046-011700-
SOUTHWEST NORTH DAKOTA

CITY           SKY/WX    TMP DP  RH WIND       PRES   REMARKS
BISMARCK       SUNNY     80  59  48 S5        29.88S
DICKINSON      SUNNY     79  53  40 N8        29.92F
GARRISON         N/A     76  57  51 E8        29.89F
HETTINGER ARPT SUNNY     85  48  27 NW15      29.95S
$$

NDZ004>008-012>016-024-026-027-054-011700-
NORTHEAST NORTH DAKOTA

CITY           SKY/WX    TMP DP  RH WIND       PRES   REMARKS
GRAND FORKS    MOSUNNY   78  53  41 SW9       29.88F
GRND FRKS AFB  SUNNY     78  54  42 S9        29.89F
DEVILS LAKE    SUNNY     75  54  46 SE8       29.88F
$$

NDZ022-023-025-028>030-036>039-047>053-011700-
SOUTHEAST NORTH DAKOTA

CITY           SKY/WX    TMP DP  RH WIND       PRES   REMARKS
FARGO          SUNNY     78  51  38 VRB5      29.92F
JAMESTOWN      SUNNY     77  60  55 SE12      29.90F
$$




USA.gov is the U.S. government's official web portal to all federal, state and local government web resources and services.